Year,Month,Day,Hour,Minute,Value (Times are PST for temperature in C)
2010,12,03,00,00,-0.10
2010,12,03,00,01,-0.10
2010,12,03,00,02,-0.10
2010,12,03,00,03,-0.10
2010,12,03,00,04,-0.10
2010,12,03,00,05,-0.10
2010,12,03,00,06,-0.10
2010,12,03,00,07,-0.10
2010,12,03,00,08,-0.10
2010,12,03,00,09,-0.10
2010,12,03,00,10,0.00
2010,12,03,00,11,0.00
2010,12,03,00,12,0.00
2010,12,03,00,13,0.00
2010,12,03,00,14,0.00
2010,12,03,00,15,0.00
2010,12,03,00,16,0.00
2010,12,03,00,17,0.00
2010,12,03,00,18,0.00
2010,12,03,00,19,0.00
2010,12,03,00,20,0.00
2010,12,03,00,21,0.00
2010,12,03,00,22,0.00
2010,12,03,00,23,0.00
2010,12,03,00,24,0.00
2010,12,03,00,25,0.10
2010,12,03,00,26,0.10
2010,12,03,00,27,0.10
2010,12,03,00,28,0.10
2010,12,03,00,29,0.20
2010,12,03,00,30,0.20
2010,12,03,00,31,0.20
2010,12,03,00,32,0.20
2010,12,03,00,33,0.20
2010,12,03,00,34,0.20
2010,12,03,00,35,0.20
2010,12,03,00,36,0.20
2010,12,03,00,37,0.20
2010,12,03,00,38,0.20
2010,12,03,00,39,0.20
2010,12,03,00,40,0.20
2010,12,03,00,41,0.20
2010,12,03,00,42,0.20
2010,12,03,00,43,0.20
2010,12,03,00,44,0.20
2010,12,03,00,45,0.20
2010,12,03,00,46,0.20
2010,12,03,00,47,0.20
2010,12,03,00,48,0.20
2010,12,03,00,49,0.10
2010,12,03,00,50,0.10
2010,12,03,00,51,0.10
2010,12,03,00,52,0.10
2010,12,03,00,53,0.10
2010,12,03,00,54,0.10
2010,12,03,00,55,0.10
2010,12,03,00,56,0.10
2010,12,03,00,57,0.10
2010,12,03,00,58,0.10
2010,12,03,00,59,0.10
2010,12,03,01,00,0.10
2010,12,03,01,01,0.10
2010,12,03,01,02,0.10
2010,12,03,01,03,0.10
2010,12,03,01,04,0.20
2010,12,03,01,05,0.10
2010,12,03,01,06,0.10
2010,12,03,01,07,0.20
2010,12,03,01,08,0.10
2010,12,03,01,09,0.10
2010,12,03,01,10,0.10
2010,12,03,01,11,0.10
2010,12,03,01,12,0.10
2010,12,03,01,13,0.10
2010,12,03,01,14,0.10
2010,12,03,01,15,0.10
2010,12,03,01,16,0.10
2010,12,03,01,17,0.10
2010,12,03,01,18,0.10
2010,12,03,01,19,0.10
2010,12,03,01,20,0.10
2010,12,03,01,21,0.10
2010,12,03,01,22,0.10
2010,12,03,01,23,0.10
2010,12,03,01,24,0.10
2010,12,03,01,25,0.10
2010,12,03,01,26,0.10
2010,12,03,01,27,0.10
2010,12,03,01,28,0.10
2010,12,03,01,29,0.10
2010,12,03,01,30,0.10
2010,12,03,01,31,0.10
2010,12,03,01,32,0.10
2010,12,03,01,33,0.10
2010,12,03,01,34,0.10
2010,12,03,01,35,0.10
2010,12,03,01,36,0.10
2010,12,03,01,37,0.10
2010,12,03,01,38,0.10
2010,12,03,01,39,0.10
2010,12,03,01,40,0.10
2010,12,03,01,41,0.10
2010,12,03,01,42,0.10
2010,12,03,01,43,0.10
2010,12,03,01,44,0.10
2010,12,03,01,45,0.10
2010,12,03,01,46,0.10
2010,12,03,01,47,0.20
2010,12,03,01,48,0.20
2010,12,03,01,49,0.20
2010,12,03,01,50,0.20
2010,12,03,01,51,0.20
2010,12,03,01,52,0.20
2010,12,03,01,53,0.20
2010,12,03,01,54,0.20
2010,12,03,01,55,0.20
2010,12,03,01,56,0.20
2010,12,03,01,57,0.20
2010,12,03,01,58,0.20
2010,12,03,01,59,0.20
2010,12,03,02,00,0.20
2010,12,03,02,01,0.20
2010,12,03,02,02,0.20
2010,12,03,02,03,0.20
2010,12,03,02,04,0.30
2010,12,03,02,05,0.30
2010,12,03,02,06,0.30
2010,12,03,02,07,0.30
2010,12,03,02,08,0.30
2010,12,03,02,09,0.30
2010,12,03,02,10,0.30
2010,12,03,02,11,0.30
2010,12,03,02,12,0.30
2010,12,03,02,13,0.30
2010,12,03,02,14,0.30
2010,12,03,02,15,0.30
2010,12,03,02,16,0.30
2010,12,03,02,17,0.30
2010,12,03,02,18,0.30
2010,12,03,02,19,0.30
2010,12,03,02,20,0.30
2010,12,03,02,21,0.30
2010,12,03,02,22,0.30
2010,12,03,02,23,0.30
2010,12,03,02,24,0.30
2010,12,03,02,25,0.30
2010,12,03,02,26,0.30
2010,12,03,02,27,0.30
2010,12,03,02,28,0.30
2010,12,03,02,29,0.30
2010,12,03,02,30,0.30
2010,12,03,02,31,0.40
2010,12,03,02,32,0.40
2010,12,03,02,33,0.40
2010,12,03,02,34,0.40
2010,12,03,02,35,0.40
2010,12,03,02,36,0.40
2010,12,03,02,37,0.40
2010,12,03,02,38,0.40
2010,12,03,02,39,0.40
2010,12,03,02,40,0.40
2010,12,03,02,41,0.40
2010,12,03,02,42,0.40
2010,12,03,02,43,0.40
2010,12,03,02,44,0.40
2010,12,03,02,45,0.40
2010,12,03,02,46,0.40
2010,12,03,02,47,0.40
2010,12,03,02,48,0.40
2010,12,03,02,49,0.40
2010,12,03,02,50,0.40
2010,12,03,02,51,0.40
2010,12,03,02,52,0.40
2010,12,03,02,53,0.40
2010,12,03,02,54,0.50
2010,12,03,02,55,0.50
2010,12,03,02,56,0.50
2010,12,03,02,57,0.50
2010,12,03,02,58,0.50
2010,12,03,02,59,0.50
2010,12,03,03,00,0.50
2010,12,03,03,01,0.50
2010,12,03,03,02,0.50
2010,12,03,03,06,0.60
2010,12,03,03,07,0.60
2010,12,03,03,08,0.60
2010,12,03,03,09,0.60
2010,12,03,03,10,0.60
2010,12,03,03,11,0.60
2010,12,03,03,12,0.60
2010,12,03,03,13,0.60
2010,12,03,03,14,0.60
2010,12,03,03,15,0.60
2010,12,03,03,16,0.60
2010,12,03,03,17,0.70
2010,12,03,03,18,0.70
2010,12,03,03,19,0.70
2010,12,03,03,20,0.70
2010,12,03,03,21,0.70
2010,12,03,03,22,0.70
2010,12,03,03,23,0.70
2010,12,03,03,24,0.70
2010,12,03,03,25,0.70
2010,12,03,03,26,0.70
2010,12,03,03,27,0.70
2010,12,03,03,28,0.70
2010,12,03,03,29,0.70
2010,12,03,03,30,0.70
2010,12,03,03,31,0.70
2010,12,03,03,32,0.70
2010,12,03,03,33,0.70
2010,12,03,03,34,0.70
2010,12,03,03,35,0.70
2010,12,03,03,36,0.70
2010,12,03,03,37,0.70
2010,12,03,03,38,0.70
2010,12,03,03,39,0.70
2010,12,03,03,40,0.70
2010,12,03,03,41,0.70
2010,12,03,03,42,0.70
2010,12,03,03,43,0.70
2010,12,03,03,44,0.70
2010,12,03,03,45,0.80
2010,12,03,03,46,0.80
2010,12,03,03,47,0.80
2010,12,03,03,48,0.80
2010,12,03,03,49,0.80
2010,12,03,03,50,0.80
2010,12,03,03,51,0.80
2010,12,03,03,52,0.80
2010,12,03,03,53,0.80
2010,12,03,03,54,0.80
2010,12,03,03,55,0.80
2010,12,03,03,56,0.80
2010,12,03,03,57,0.80
2010,12,03,03,58,0.80
2010,12,03,03,59,0.80
2010,12,03,04,00,0.80
2010,12,03,04,01,0.80
2010,12,03,04,02,0.80
2010,12,03,04,03,0.80
2010,12,03,04,04,0.80
2010,12,03,04,05,0.80
2010,12,03,04,06,0.80
2010,12,03,04,07,0.80
2010,12,03,04,08,0.80
2010,12,03,04,09,0.80
2010,12,03,04,10,0.80
2010,12,03,04,11,0.80
2010,12,03,04,12,0.80
2010,12,03,04,13,0.80
2010,12,03,04,14,0.80
2010,12,03,04,15,0.80
2010,12,03,04,16,0.80
2010,12,03,04,17,0.80
2010,12,03,04,18,0.80
2010,12,03,04,19,0.80
2010,12,03,04,20,0.80
2010,12,03,04,21,0.80
2010,12,03,04,22,0.80
2010,12,03,04,23,0.80
2010,12,03,04,24,0.80
2010,12,03,04,25,0.80
2010,12,03,04,26,0.80
2010,12,03,04,27,0.80
2010,12,03,04,28,0.80
2010,12,03,04,29,0.80
2010,12,03,04,30,0.80
2010,12,03,04,31,0.80
2010,12,03,04,32,0.80
2010,12,03,04,33,0.80
2010,12,03,04,34,0.80
2010,12,03,04,35,0.80
2010,12,03,04,36,0.80
2010,12,03,04,37,0.80
2010,12,03,04,38,0.80
2010,12,03,04,39,0.80
2010,12,03,04,40,0.80
2010,12,03,04,41,0.80
2010,12,03,04,42,0.80
2010,12,03,04,43,0.80
2010,12,03,04,44,0.70
2010,12,03,04,45,0.80
2010,12,03,04,46,0.80
2010,12,03,04,47,0.70
2010,12,03,04,48,0.80
2010,12,03,04,49,0.80
2010,12,03,04,50,0.80
2010,12,03,04,51,0.80
2010,12,03,04,52,0.80
2010,12,03,04,53,0.80
2010,12,03,04,54,0.80
2010,12,03,04,55,0.80
2010,12,03,04,56,0.80
2010,12,03,04,57,0.80
2010,12,03,04,58,0.80
2010,12,03,04,59,0.80
2010,12,03,05,00,0.80
2010,12,03,05,01,0.80
2010,12,03,05,02,0.80
2010,12,03,05,03,0.80
2010,12,03,05,04,0.80
2010,12,03,05,05,0.80
2010,12,03,05,06,0.80
2010,12,03,05,07,0.90
2010,12,03,05,08,0.80
2010,12,03,05,09,0.90
2010,12,03,05,10,0.90
2010,12,03,05,11,0.90
2010,12,03,05,12,0.90
2010,12,03,05,13,0.90
2010,12,03,05,14,0.90
2010,12,03,05,15,0.90
2010,12,03,05,16,0.80
2010,12,03,05,17,0.80
2010,12,03,05,18,0.80
2010,12,03,05,19,0.80
2010,12,03,05,20,0.80
2010,12,03,05,21,0.80
2010,12,03,05,22,0.80
2010,12,03,05,23,0.80
2010,12,03,05,24,0.80
2010,12,03,05,25,0.80
2010,12,03,05,26,0.80
2010,12,03,05,27,0.80
2010,12,03,05,28,0.90
2010,12,03,05,29,0.90
2010,12,03,05,30,0.90
2010,12,03,05,31,0.90
2010,12,03,05,32,0.90
2010,12,03,05,33,0.90
2010,12,03,05,34,0.90
2010,12,03,05,35,1.00
2010,12,03,05,36,1.00
2010,12,03,05,37,1.00
2010,12,03,05,38,1.00
2010,12,03,05,39,1.00
2010,12,03,05,40,1.00
2010,12,03,05,41,1.10
2010,12,03,05,42,1.10
2010,12,03,05,43,1.10
2010,12,03,05,44,1.10
2010,12,03,05,45,1.10
2010,12,03,05,46,1.10
2010,12,03,05,47,1.10
2010,12,03,05,48,1.10
2010,12,03,05,49,1.10
2010,12,03,05,50,1.10
2010,12,03,05,51,1.10
2010,12,03,05,52,1.10
2010,12,03,05,53,1.10
2010,12,03,05,54,1.10
2010,12,03,05,55,1.10
2010,12,03,05,56,1.10
2010,12,03,05,57,1.10
2010,12,03,05,58,1.10
2010,12,03,05,59,1.10
2010,12,03,06,00,1.10
2010,12,03,06,01,1.10
2010,12,03,06,02,1.10
2010,12,03,06,03,1.10
2010,12,03,06,04,1.10
2010,12,03,06,05,1.00
2010,12,03,06,06,1.00
2010,12,03,06,07,1.00
2010,12,03,06,08,1.00
2010,12,03,06,09,1.00
2010,12,03,06,10,1.00
2010,12,03,06,11,1.00
2010,12,03,06,12,1.00
2010,12,03,06,13,1.00
2010,12,03,06,14,1.00
2010,12,03,06,15,1.00
2010,12,03,06,16,1.00
2010,12,03,06,17,1.00
2010,12,03,06,18,1.00
2010,12,03,06,19,1.00
2010,12,03,06,20,1.00
2010,12,03,06,21,1.00
2010,12,03,06,22,1.00
2010,12,03,06,23,1.00
2010,12,03,06,24,1.00
2010,12,03,06,25,1.00
2010,12,03,06,26,1.00
2010,12,03,06,27,1.00
2010,12,03,06,28,0.90
2010,12,03,06,29,0.90
2010,12,03,06,30,0.90
2010,12,03,06,31,0.90
2010,12,03,06,32,0.90
2010,12,03,06,33,0.90
2010,12,03,06,34,0.80
2010,12,03,06,35,0.80
2010,12,03,06,36,0.80
2010,12,03,06,37,0.80
2010,12,03,06,38,0.80
2010,12,03,06,39,0.80
2010,12,03,06,40,0.80
2010,12,03,06,41,0.80
2010,12,03,06,42,0.80
2010,12,03,06,43,0.70
2010,12,03,06,44,0.70
2010,12,03,06,45,0.70
2010,12,03,06,46,0.70
2010,12,03,06,47,0.70
2010,12,03,06,48,0.70
2010,12,03,06,49,0.70
2010,12,03,06,50,0.70
2010,12,03,06,51,0.70
2010,12,03,06,52,0.70
2010,12,03,06,53,0.70
2010,12,03,06,54,0.70
2010,12,03,06,55,0.70
2010,12,03,06,56,0.70
2010,12,03,06,57,0.70
2010,12,03,06,58,0.70
2010,12,03,06,59,0.70
2010,12,03,07,00,0.70
2010,12,03,07,01,0.70
2010,12,03,07,02,0.70
2010,12,03,07,03,0.70
2010,12,03,07,04,0.80
2010,12,03,07,05,0.80
2010,12,03,07,06,0.80
2010,12,03,07,07,0.80
2010,12,03,07,08,0.80
2010,12,03,07,09,0.80
2010,12,03,07,10,0.80
2010,12,03,07,11,0.80
2010,12,03,07,12,0.80
2010,12,03,07,13,0.70
2010,12,03,07,14,0.70
2010,12,03,07,15,0.70
2010,12,03,07,16,0.70
2010,12,03,07,17,0.70
2010,12,03,07,18,0.70
2010,12,03,07,19,0.70
2010,12,03,07,20,0.70
2010,12,03,07,21,0.70
2010,12,03,07,22,0.70
2010,12,03,07,23,0.70
2010,12,03,07,24,0.60
2010,12,03,07,25,0.60
2010,12,03,07,26,0.60
2010,12,03,07,27,0.60
2010,12,03,07,28,0.60
2010,12,03,07,29,0.60
2010,12,03,07,30,0.60
2010,12,03,07,31,0.60
2010,12,03,07,32,0.60
2010,12,03,07,33,0.60
2010,12,03,07,34,0.60
2010,12,03,07,35,0.60
2010,12,03,07,36,0.60
2010,12,03,07,37,0.60
2010,12,03,07,38,0.60
2010,12,03,07,39,0.60
2010,12,03,07,40,0.60
2010,12,03,07,41,0.60
2010,12,03,07,42,0.60
2010,12,03,07,43,0.60
2010,12,03,07,44,0.60
2010,12,03,07,45,0.50
2010,12,03,07,46,0.60
2010,12,03,07,47,0.60
2010,12,03,07,48,0.60
2010,12,03,07,49,0.60
2010,12,03,07,50,0.60
2010,12,03,07,51,0.60
2010,12,03,07,52,0.60
2010,12,03,07,53,0.60
2010,12,03,07,54,0.60
2010,12,03,07,55,0.60
2010,12,03,07,56,0.60
2010,12,03,07,57,0.60
2010,12,03,07,58,0.60
2010,12,03,07,59,0.60
2010,12,03,08,00,0.60
2010,12,03,08,01,0.60
2010,12,03,08,02,0.60
2010,12,03,08,03,0.60
2010,12,03,08,04,0.60
2010,12,03,08,05,0.60
2010,12,03,08,06,0.60
2010,12,03,08,07,0.60
2010,12,03,08,08,0.60
2010,12,03,08,09,0.60
2010,12,03,08,10,0.60
2010,12,03,08,11,0.60
2010,12,03,08,12,0.60
2010,12,03,08,13,0.60
2010,12,03,08,14,0.60
2010,12,03,08,15,0.60
2010,12,03,08,16,0.60
2010,12,03,08,17,0.60
2010,12,03,08,18,0.70
2010,12,03,08,19,0.70
2010,12,03,08,20,0.70
2010,12,03,08,21,0.70
2010,12,03,08,22,0.70
2010,12,03,08,23,0.70
2010,12,03,08,24,0.70
2010,12,03,08,25,0.70
2010,12,03,08,26,0.70
2010,12,03,08,27,0.80
2010,12,03,08,28,0.80
2010,12,03,08,29,0.80
2010,12,03,08,30,0.80
2010,12,03,08,31,0.80
2010,12,03,08,32,0.80
2010,12,03,08,33,0.80
2010,12,03,08,34,0.80
2010,12,03,08,35,0.90
2010,12,03,08,36,0.90
2010,12,03,08,37,0.90
2010,12,03,08,38,0.90
2010,12,03,08,39,0.90
2010,12,03,08,40,0.90
2010,12,03,08,41,0.90
2010,12,03,08,42,0.90
2010,12,03,08,43,0.90
2010,12,03,08,44,0.90
2010,12,03,08,45,0.90
2010,12,03,08,46,0.90
2010,12,03,08,47,0.90
2010,12,03,08,48,0.90
2010,12,03,08,49,1.00
2010,12,03,08,50,1.00
2010,12,03,08,51,1.00
2010,12,03,08,52,1.00
2010,12,03,08,53,1.00
2010,12,03,08,54,1.00
2010,12,03,08,55,1.00
2010,12,03,08,56,1.00
2010,12,03,08,57,1.00
2010,12,03,08,58,1.00
2010,12,03,08,59,1.00
2010,12,03,09,00,1.00
2010,12,03,09,01,1.00
2010,12,03,09,02,1.00
2010,12,03,09,03,1.10
2010,12,03,09,04,1.00
2010,12,03,09,05,1.00
2010,12,03,09,06,1.10
2010,12,03,09,07,1.10
2010,12,03,09,08,1.10
2010,12,03,09,09,1.10
2010,12,03,09,10,1.10
2010,12,03,09,11,1.10
2010,12,03,09,12,1.10
2010,12,03,09,13,1.10
2010,12,03,09,14,1.10
2010,12,03,09,15,1.10
2010,12,03,09,16,1.10
2010,12,03,09,17,1.10
2010,12,03,09,18,1.20
2010,12,03,09,19,1.20
2010,12,03,09,20,1.20
2010,12,03,09,21,1.20
2010,12,03,09,22,1.20
2010,12,03,09,23,1.20
2010,12,03,09,24,1.30
2010,12,03,09,25,1.30
2010,12,03,09,26,1.30
2010,12,03,09,27,1.30
2010,12,03,09,28,1.30
2010,12,03,09,29,1.30
2010,12,03,09,30,1.30
2010,12,03,09,31,1.30
2010,12,03,09,32,1.30
2010,12,03,09,33,1.30
2010,12,03,09,34,1.30
2010,12,03,09,35,1.40
2010,12,03,09,36,1.40
2010,12,03,09,37,1.40
2010,12,03,09,38,1.50
2010,12,03,09,39,1.50
2010,12,03,09,40,1.50
2010,12,03,09,41,1.50
2010,12,03,09,42,1.60
2010,12,03,09,43,1.60
2010,12,03,09,44,1.60
2010,12,03,09,45,1.60
2010,12,03,09,46,1.60
2010,12,03,09,47,1.60
2010,12,03,09,48,1.60
2010,12,03,09,49,1.60
2010,12,03,09,50,1.60
2010,12,03,09,51,1.60
2010,12,03,09,52,1.60
2010,12,03,09,53,1.60
2010,12,03,09,54,1.60
2010,12,03,09,55,1.60
2010,12,03,09,56,1.60
2010,12,03,09,57,1.60
2010,12,03,09,58,1.60
2010,12,03,09,59,1.60
2010,12,03,10,00,1.70
2010,12,03,10,01,1.70
2010,12,03,10,02,1.70
2010,12,03,10,03,1.70
2010,12,03,10,04,1.70
2010,12,03,10,05,1.70
2010,12,03,10,06,1.70
2010,12,03,10,07,1.70
2010,12,03,10,08,1.70
2010,12,03,10,09,1.80
2010,12,03,10,10,1.80
2010,12,03,10,11,1.80
2010,12,03,10,12,1.80
2010,12,03,10,13,1.80
2010,12,03,10,14,1.80
2010,12,03,10,15,1.80
2010,12,03,10,16,1.80
2010,12,03,10,17,1.80
2010,12,03,10,18,1.90
2010,12,03,10,19,1.90
2010,12,03,10,20,1.90
2010,12,03,10,21,1.90
2010,12,03,10,22,1.90
2010,12,03,10,23,1.90
2010,12,03,10,24,1.90
2010,12,03,10,25,1.90
2010,12,03,10,26,1.90
2010,12,03,10,27,2.00
2010,12,03,10,28,2.00
2010,12,03,10,29,2.00
2010,12,03,10,30,2.00
2010,12,03,10,31,2.10
2010,12,03,10,32,2.10
2010,12,03,10,33,2.10
2010,12,03,10,34,2.10
2010,12,03,10,35,2.10
2010,12,03,10,36,2.20
2010,12,03,10,37,2.20
2010,12,03,10,38,2.20
2010,12,03,10,39,2.20
2010,12,03,10,40,2.30
2010,12,03,10,41,2.30
2010,12,03,10,42,2.30
2010,12,03,10,43,2.40
2010,12,03,10,44,2.40
2010,12,03,10,45,2.40
2010,12,03,10,46,2.50
2010,12,03,10,47,2.50
2010,12,03,10,48,2.60
2010,12,03,10,49,2.60
2010,12,03,10,50,2.60
2010,12,03,10,51,2.70
2010,12,03,10,52,2.80
2010,12,03,10,53,2.80
2010,12,03,10,54,2.90
2010,12,03,10,55,2.90
2010,12,03,10,56,3.00
2010,12,03,10,57,3.00
2010,12,03,10,58,3.10
2010,12,03,10,59,3.10
2010,12,03,11,00,3.10
2010,12,03,11,01,3.20
2010,12,03,11,02,3.20
2010,12,03,11,03,3.20
2010,12,03,11,04,3.20
2010,12,03,11,05,3.20
2010,12,03,11,06,3.20
2010,12,03,11,07,3.30
2010,12,03,11,08,3.30
2010,12,03,11,09,3.30
2010,12,03,11,10,3.30
2010,12,03,11,11,3.30
2010,12,03,11,12,3.30
2010,12,03,11,13,3.30
2010,12,03,11,14,3.30
2010,12,03,11,15,3.30
2010,12,03,11,16,3.40
2010,12,03,11,17,3.40
2010,12,03,11,18,3.40
2010,12,03,11,19,3.40
2010,12,03,11,20,3.40
2010,12,03,11,21,3.50
2010,12,03,11,22,3.50
2010,12,03,11,23,3.60
